Weather History for Drummond Island, MI

Change the Weather History Date:

Monday, October 17, 2011

  Actual Average (KCIU) Record (KCIU)
Temperature  
Mean Temperature 47 °F -  
Max Temperature 50 °F 54 °F 69 °F (1998)
Min Temperature 44 °F 35 °F 27 °F (1978)
Degree Days  
Heating Degree Days 18    
Moisture  
Dew Point 35 °F    
Average Humidity 62    
Maximum Humidity 87    
Minimum Humidity 53    
Precipitation  
Precipitation 0.00 in - - ()
Sea Level Pressure  
Sea Level Pressure 29.45 in    
Wind  
Wind Speed 10 mph (West)    
Max Wind Speed 16 mph    
Max Gust Speed 29 mph    
Visibility 10 miles    
Events Rain    
Averages and records for this station are not official NWS values.
T = Trace of Precipitation, MM = Missing Value Source: NWS Daily Summary

Daily Weather History Graph

Daily Weather History Graph

Search for Another Location

Airport:

Trip Planner

Search our weather history database for the weather conditions in past years. The results will help you decide how hot, cold, wet, or windy it might be!

Date:

Astronomy

Oct. 17, 2011 Rise Set
Actual Time 7:54 AM EDT 6:45 PM EDT
Civil Twilight 7:23 AM EDT 7:15 PM EDT
Nautical Twilight 6:49 AM EDT 7:50 PM EDT
Astronomical Twilight 6:14 AM EDT 8:25 PM EDT
Moon 10:12 PM EDT (10/17) 1:13 PM EDT (10/17)
Length of Visible Light 11h 52m
Length of Day
10h 51m
Waning Gibbous, 74% of the Moon is Illuminated
Oct 17
Waning Gibbous
Oct 19
Last Quarter
Oct 26
New
Nov 2
First Quarter
Nov 10
Full

Hourly Weather History & Observations

Time (EDT) Temp. Windchill Dew Point Humidity Pressure Visibility Wind Dir Wind Speed Gust Speed Precip Events Conditions
12:15 AM 46.4 °F 41.9 °F 33.8 °F 62% 29.46 in 10.0 mi WNW 9.2 mph - N/A   Overcast
12:35 AM 46.4 °F 43.5 °F 33.8 °F 62% 29.46 in 10.0 mi West 5.8 mph 17.3 mph N/A   Overcast
12:56 AM 44.6 °F 40.7 °F 32.0 °F 61% 29.46 in 10.0 mi WSW 6.9 mph - N/A   Scattered Clouds
1:16 AM 44.6 °F 38.4 °F 32.0 °F 61% 29.45 in 10.0 mi WSW 12.7 mph 20.7 mph N/A   Mostly Cloudy
1:35 AM 46.4 °F 41.1 °F 30.2 °F 53% 29.45 in 10.0 mi West 11.5 mph 19.6 mph N/A   Overcast
1:56 AM 46.4 °F 41.5 °F 30.2 °F 53% 29.45 in 10.0 mi West 10.4 mph 17.3 mph N/A   Overcast
2:15 AM 46.4 °F 40.4 °F 30.2 °F 53% 29.43 in 10.0 mi WSW 13.8 mph 20.7 mph N/A   Mostly Cloudy
2:35 AM 46.4 °F 41.9 °F 30.2 °F 53% 29.43 in 10.0 mi West 9.2 mph 24.2 mph N/A   Scattered Clouds
2:56 AM 46.4 °F 41.5 °F 30.2 °F 53% 29.43 in 10.0 mi WSW 10.4 mph 24.2 mph N/A   Scattered Clouds
3:35 AM 46.4 °F 41.5 °F 32.0 °F 57% 29.42 in 10.0 mi WSW 10.4 mph 21.9 mph N/A   Overcast
3:55 AM 46.4 °F 41.5 °F 32.0 °F 57% 29.42 in 10.0 mi West 10.4 mph 16.1 mph N/A   Overcast
4:15 AM 46.4 °F 40.1 °F 32.0 °F 57% 29.42 in 10.0 mi West 15.0 mph 24.2 mph N/A   Overcast
4:36 AM 46.4 °F 42.4 °F 32.0 °F 57% 29.42 in 10.0 mi West 8.1 mph 19.6 mph N/A   Overcast
4:56 AM 46.4 °F 40.7 °F 32.0 °F 57% 29.41 in 10.0 mi West 12.7 mph 18.4 mph N/A   Overcast
5:15 AM 46.4 °F 40.7 °F 32.0 °F 57% 29.42 in 10.0 mi West 12.7 mph 25.3 mph N/A   Overcast
5:36 AM 46.4 °F 40.1 °F 32.0 °F 57% 29.42 in 10.0 mi West 15.0 mph 24.2 mph N/A   Overcast
5:55 AM 46.4 °F 41.9 °F 33.8 °F 62% 29.41 in 10.0 mi WSW 9.2 mph 21.9 mph N/A   Overcast
6:15 AM 46.4 °F 42.4 °F 33.8 °F 62% 29.41 in 10.0 mi West 8.1 mph 16.1 mph N/A   Overcast
6:36 AM 46.4 °F 41.1 °F 33.8 °F 62% 29.41 in 10.0 mi West 11.5 mph 26.5 mph N/A   Overcast
6:55 AM 46.4 °F 41.5 °F 33.8 °F 62% 29.41 in 10.0 mi West 10.4 mph 18.4 mph N/A   Overcast
7:15 AM 46.4 °F 40.4 °F 33.8 °F 62% 29.42 in 10.0 mi West 13.8 mph 27.6 mph N/A   Overcast
7:35 AM 46.4 °F 42.4 °F 32.0 °F 57% 29.41 in 10.0 mi West 8.1 mph 19.6 mph N/A   Overcast
7:55 AM 46.4 °F 41.5 °F 33.8 °F 62% 29.41 in 10.0 mi West 10.4 mph 18.4 mph N/A   Light Drizzle
8:16 AM 46.4 °F 39.8 °F 33.8 °F 62% 29.42 in 10.0 mi West 16.1 mph 28.8 mph N/A   Light Drizzle
8:35 AM 46.4 °F 40.4 °F 33.8 °F 62% 29.42 in 10.0 mi West 13.8 mph 25.3 mph N/A   Overcast
8:55 AM 46.4 °F 42.4 °F 33.8 °F 62% 29.43 in 10.0 mi West 8.1 mph 19.6 mph N/A   Overcast
9:16 AM 46.4 °F 42.4 °F 33.8 °F 62% 29.43 in 10.0 mi West 8.1 mph 19.6 mph N/A   Overcast
9:35 AM 46.4 °F 41.5 °F 35.6 °F 66% 29.43 in 10.0 mi West 10.4 mph 25.3 mph N/A   Light Drizzle
9:55 AM 44.6 °F 39.2 °F 35.6 °F 71% 29.44 in 10.0 mi West 10.4 mph 26.5 mph N/A   Drizzle
10:16 AM 46.4 °F 42.9 °F 37.4 °F 71% 29.44 in 10.0 mi WNW 6.9 mph 19.6 mph N/A Rain Light Rain
10:35 AM 46.4 °F 41.9 °F 35.6 °F 66% 29.45 in 10.0 mi West 9.2 mph 20.7 mph N/A   Overcast
10:55 AM 48.2 °F - 35.6 °F 62% 29.45 in 10.0 mi West 13.8 mph 20.7 mph N/A   Overcast
11:16 AM 48.2 °F - 35.6 °F 62% 29.45 in 10.0 mi West 12.7 mph 21.9 mph N/A   Overcast
11:35 AM 48.2 °F - 35.6 °F 62% 29.45 in 10.0 mi West 12.7 mph 20.7 mph N/A   Mostly Cloudy
11:55 AM 48.2 °F - 35.6 °F 62% 29.46 in 10.0 mi West 16.1 mph 28.8 mph N/A   Mostly Cloudy
12:16 PM 46.4 °F 40.4 °F 35.6 °F 66% 29.47 in 10.0 mi West 13.8 mph 23.0 mph N/A Rain Light Rain
12:35 PM 46.4 °F 41.9 °F 37.4 °F 71% 29.48 in 10.0 mi West 9.2 mph 19.6 mph N/A Rain Light Rain
12:56 PM 48.2 °F - 37.4 °F 66% 29.47 in 10.0 mi West 6.9 mph 17.3 mph N/A   Overcast
1:15 PM 50.0 °F - 37.4 °F 62% 29.48 in 10.0 mi West 11.5 mph 19.6 mph N/A   Overcast
1:35 PM 50.0 °F - 37.4 °F 62% 29.48 in 10.0 mi West 8.1 mph 23.0 mph N/A   Overcast
1:56 PM 48.2 °F - 37.4 °F 66% 29.48 in 10.0 mi West 8.1 mph 18.4 mph N/A   Overcast
2:15 PM 50.0 °F - 37.4 °F 62% 29.48 in 10.0 mi West 9.2 mph 18.4 mph N/A   Overcast
2:35 PM 50.0 °F - 37.4 °F 62% 29.48 in 10.0 mi West 8.1 mph - N/A   Overcast
2:56 PM 50.0 °F - 37.4 °F 62% 29.48 in 10.0 mi WNW 8.1 mph 17.3 mph N/A   Overcast
3:15 PM 50.0 °F - 37.4 °F 62% 29.49 in 10.0 mi West 10.4 mph 16.1 mph N/A   Overcast
3:36 PM 50.0 °F - 35.6 °F 58% 29.50 in 10.0 mi West 9.2 mph 24.2 mph N/A   Overcast
3:55 PM 48.2 °F - 37.4 °F 66% 29.50 in 10.0 mi West 10.4 mph 16.1 mph N/A   Overcast
4:15 PM 48.2 °F - 37.4 °F 66% 29.51 in 10.0 mi West 11.5 mph 19.6 mph N/A   Overcast
4:36 PM 46.4 °F 42.4 °F 37.4 °F 71% 29.52 in 10.0 mi West 8.1 mph - N/A Rain Rain
4:55 PM 44.6 °F 40.2 °F 39.2 °F 81% 29.53 in 10.0 mi West 8.1 mph 21.9 mph N/A Rain Light Rain
5:15 PM 44.6 °F 40.2 °F 41.0 °F 87% 29.54 in 10.0 mi West 8.1 mph 19.6 mph N/A Rain Light Rain
5:36 PM 44.6 °F 40.7 °F 41.0 °F 87% 29.55 in 10.0 mi West 6.9 mph - N/A Rain Rain
5:55 PM 44.6 °F 40.7 °F 41.0 °F 87% 29.55 in 10.0 mi West 6.9 mph - N/A Rain Rain
6:15 PM 44.6 °F 40.2 °F 41.0 °F 87% 29.56 in 10.0 mi West 8.1 mph 16.1 mph N/A Rain Rain
6:36 PM 44.6 °F 41.4 °F 41.0 °F 87% 29.57 in 10.0 mi West 5.8 mph - N/A Rain Light Rain
6:55 PM 44.6 °F 40.7 °F 41.0 °F 87% 29.58 in 10.0 mi West 6.9 mph - N/A   Light Drizzle
7:16 PM 44.6 °F 40.7 °F 41.0 °F 87% 29.58 in 7.0 mi West 6.9 mph 18.4 mph N/A Rain Light Rain
7:35 PM 44.6 °F 40.7 °F 41.0 °F 87% 29.58 in 10.0 mi West 6.9 mph - N/A   Overcast
7:56 PM 44.6 °F 43.1 °F 41.0 °F 87% 29.59 in 5.0 mi West 3.5 mph - N/A Rain Light Rain
8:15 PM 44.6 °F 42.2 °F 41.0 °F 87% 29.59 in 10.0 mi West 4.6 mph - N/A   Overcast
8:35 PM 44.6 °F 40.2 °F 39.2 °F 81% 29.59 in 10.0 mi West 8.1 mph - N/A   Overcast
8:56 PM 44.6 °F 42.2 °F 39.2 °F 81% 29.60 in 10.0 mi West 4.6 mph 18.4 mph N/A   Overcast
9:15 PM 44.6 °F 40.7 °F 39.2 °F 81% 29.60 in 10.0 mi West 6.9 mph - N/A   Overcast
9:35 PM 44.6 °F 41.4 °F 41.0 °F 87% 29.61 in 10.0 mi WSW 5.8 mph - N/A   Overcast
9:56 PM 44.6 °F 40.2 °F 39.2 °F 81% 29.61 in 10.0 mi WSW 8.1 mph - N/A   Overcast
10:15 PM 44.6 °F 40.7 °F 39.2 °F 81% 29.62 in 10.0 mi West 6.9 mph 16.1 mph N/A   Overcast
10:35 PM 44.6 °F 41.4 °F 39.2 °F 81% 29.62 in 10.0 mi West 5.8 mph - N/A   Overcast
11:15 PM 44.6 °F 41.4 °F 39.2 °F 81% 29.62 in 10.0 mi West 5.8 mph - N/A   Overcast
11:35 PM 44.6 °F 43.1 °F 39.2 °F 81% 29.63 in 10.0 mi West 3.5 mph - N/A   Overcast
11:56 PM 44.6 °F 41.4 °F 37.4 °F 76% 29.63 in 10.0 mi West 5.8 mph - N/A   Mostly Cloudy